Flag for Australia Weather past 2 weeks in Sydney, New South Wales, Australia

Now
50 °F

Clear.


Feels Like: 45 °F
Forecast: 46 / 62 °F
Wind: 14 mph from West

Location: Sydney Airport

Current Time: Aug 30, 2015 at 2:58:43 AM

Latest Report: Aug 30, 2015 at 2:00 AM


Visibility: 10 mi

Pressure: 30.09 "Hg

Humidity: 54%

Dew point: 34 °F

Location of SydneyLocation

Historic Weather in Sydney — Graph

°F

Sydney temperature yesterday

Maximum temperature yesterday: 68 °F (at 2:00 PM)
Minimum temperature yesterday: 50 °F (at 3:30 AM)
Average temperature yesterday: 57 °F

Past Weeks' High & Low Weather Summary

 TemperatureHumidityPressure
High82 °F (Aug 22, 1:30 PM)100% (Aug 23, 8:30 PM)30.42 "Hg (Aug 23, 8:30 PM)
Low46 °F (Aug 15, 5:30 AM)22% (Aug 17, 4:00 PM)29.86 "Hg (Aug 25, 2:00 AM)
Average60 °F66%30.12 "Hg
* Reported Aug 15 1:00 AM — Aug 30 1:30 AM, Sydney, Weather by CustomWeather, © 2015

Note: Actual official high and low records may vary slightly from our data, if they occured in-between our weather recording intervals... More about our weather records

Advertising

Sydney weather history for previous 24 hours

 ConditionsComfort  
Time TempWeatherWind HumidityBarometerVisibility
1:30 AM
Sun, Aug 30
50 °FClear.16 mph50%30.09 "Hg10 mi
1:00 AM52 °FClear.17 mph47%30.12 "Hg10 mi
12:00 AM52 °FClear.13 mph50%30.12 "Hg10 mi
11:30 PM
Sat, Aug 29
52 °FPassing clouds.15 mph50%30.12 "HgN/A
11:00 PM54 °FClear.13 mph47%30.12 "Hg10 mi
10:30 PM54 °FClear.14 mph47%30.12 "Hg10 mi
9:30 PM55 °FPassing clouds.13 mph47%30.12 "HgN/A
9:00 PM57 °FPassing clouds.17 mph41%30.12 "HgN/A
8:00 PM57 °FClear.12 mph41%30.12 "Hg10 mi
7:30 PM59 °FPassing clouds.7 mph51%30.09 "HgN/A
7:00 PM59 °FClear.1 mph55%30.09 "Hg10 mi
6:00 PM59 °FClear.7 mph55%30.07 "Hg10 mi
5:00 PM61 °FClear.9 mph52%30.04 "Hg10 mi
4:00 PM63 °FSunny.13 mph49%30.04 "Hg10 mi
3:30 PM64 °FSunny.10 mph43%30.04 "Hg10 mi
3:00 PM68 °FPassing clouds.7 mph28%30.04 "HgN/A
2:30 PM68 °FPassing clouds.12 mph26%30.07 "HgN/A
2:00 PM68 °FSunny.13 mph28%30.07 "Hg10 mi
1:30 PM64 °FSunny.10 mph34%30.07 "Hg10 mi
1:00 PM66 °FSunny.9 mph30%30.09 "Hg10 mi
12:30 PM64 °FPassing clouds.7 mph43%30.12 "HgN/A
12:00 PM63 °FPassing clouds.8 mph42%30.12 "HgN/A
11:00 AM61 °FPassing clouds.8 mph48%30.15 "HgN/A
10:30 AM61 °FPassing clouds.8 mph45%30.15 "HgN/A
10:00 AM61 °FPassing clouds.8 mph45%30.18 "HgN/A
9:30 AM59 °FPassing clouds.6 mph51%30.18 "HgN/A
9:00 AM59 °FPassing clouds.6 mph51%30.18 "HgN/A
8:00 AM55 °FPassing clouds.7 mph63%30.18 "HgN/A
7:30 AM52 °FPassing clouds.6 mph72%30.18 "HgN/A
7:00 AM50 °FPassing clouds.7 mph76%30.18 "HgN/A
6:00 AM50 °FPassing clouds.6 mph76%30.18 "HgN/A
5:30 AM50 °FSunny.8 mph76%30.18 "Hg10 mi
5:00 AM50 °FClear.6 mph76%30.15 "Hg10 mi
4:30 AM50 °FClear.6 mph76%30.15 "Hg10 mi
3:30 AM50 °FPassing clouds.6 mph82%30.15 "HgN/A
3:00 AM52 °FPassing clouds.7 mph77%30.18 "HgN/A
2:30 AM52 °FPassing clouds.8 mph77%30.18 "HgN/A
2:00 AM52 °FPassing clouds.7 mph77%30.18 "HgN/A
Weather by CustomWeather, © 2015

See weather overviewHow to use our weather pages